User: anonymous   Login
Location: 相模原市立博物館
(35.5593°N, 139.3931°E)
Time: 15:19:24
(UTC+09:00)
Language:

NUDT-PHONESAT - Orbit

View from above orbital plane
View from above orbital plane
View from above satellite
View from above satellite

Ground track
Ground track

The orbit data is extracted from the following two-line orbital elements,

1 40900U 15049B   22026.74889733  .00010461  00000-0  36876-3 0  9998
2 40900  97.4111  44.6611 0012905  72.7898  38.8657 15.29384032352912
Epoch (UTC): 26 January 2022 17:58:24
Eccentricity: 0.0012905
inclination: 97.4111°
perigee height: 469 km
apogee height: 486 km
right ascension of ascending node: 44.6611°
argument of perigee: 72.7898°
revolutions per day: 15.29384032
mean anomaly at epoch: 38.8657°
orbit number at epoch: 35291

The dashed part of the orbit path shows where the satellite is in the earth's shadow,  

DLR